This is the latest recevied weather packets stored in our database for station/object KE0TNI-13. If no packets are shown the sender has not sent any weather packets the latest 10 day(s).
| Time | Temp. | Humidity | Pressure | Rain* | Wind** | Luminosity | Snow |
|---|---|---|---|---|---|---|---|
| 1777660911 | 6.11° C | 58% | 1023.5 hPa | 0 mm | - | 175 W/m² | - |
| 1777660608 | 6.67° C | 57% | 1023.1 hPa | 0 mm | - | 251 W/m² | - |
| 1777660304 | 7.22° C | 53% | 1023.1 hPa | 0 mm | - | 255 W/m² | - |
| 1777660001 | 7.22° C | 48% | 1023.3 hPa | 0 mm | - | 227 W/m² | - |
| 1777659697 | 6.11° C | 57% | 1023.7 hPa | 0 mm | - | 584 W/m² | - |
| 1777659395 | 3.33° C | 69% | 1023.2 hPa | 0 mm | - | 1109 W/m² | - |
| 1777659091 | 3.33° C | 72% | 1023.6 hPa | 0 mm | - | 430 W/m² | - |
| 1777658790 | 3.89° C | 71% | 1023.5 hPa | 0 mm | - | 191 W/m² | - |
| 1777658486 | 4.44° C | 60% | 1023.3 hPa | 0 mm | - | 224 W/m² | - |
| 1777658182 | 5.56° C | 52% | 1023.5 hPa | 0 mm | - | 367 W/m² | - |
| 1777657879 | 4.44° C | 68% | 1023.5 hPa | 0 mm | - | 1109 W/m² | - |
| 1777657576 | 3.89° C | 66% | 1023.2 hPa | 0 mm | - | 203 W/m² | - |
| 1777657274 | 3.89° C | 68% | 1023.6 hPa | 0 mm | - | 1152 W/m² | - |
| 1777656971 | 3.89° C | 62% | 1023.7 hPa | 0.51 mm | - | 330 W/m² | - |
| 1777656667 | 3.89° C | 65% | 1023.5 hPa | 0.51 mm | - | 1076 W/m² | - |
| 1777656363 | 3.89° C | 66% | 1023.5 hPa | 0 mm | - | 1006 W/m² | - |
| 1777656059 | 3.33° C | 64% | 1023.7 hPa | 0 mm | - | 350 W/m² | - |
| 1777655755 | 2.78° C | 67% | 1023.6 hPa | 0 mm | - | 138 W/m² | - |
| 1777655452 | 2.22° C | 71% | 1023.5 hPa | 0 mm | - | 127 W/m² | - |
| 1777655149 | 2.22° C | 73% | 1023.6 hPa | 0 mm | - | 32 W/m² | - |
| 1777654846 | 2.78° C | 71% | 1023.3 hPa | 0 mm | - | 36 W/m² | - |
| 1777654543 | 2.78° C | 69% | 1023.9 hPa | 0 mm | - | 40 W/m² | - |
| 1777654241 | 2.78° C | 70% | 1023.2 hPa | 0 mm | - | 38 W/m² | - |
| 1777653938 | 2.78° C | 76% | 1023.2 hPa | 0 mm | - | 36 W/m² | - |
| 1777653635 | 2.22° C | 74% | 1023.5 hPa | 0 mm | - | 36 W/m² | - |
* Rain latest hour (hover to see other rain measurements)
** Current wind speed in m/s (hover to see current wind gust speed)